User: anonymous   Login
Location: Unspecified
(0.0000°N, 0.0000°E)
Time: 15:22:32
(UTC+00:00)
Language:

AISAT - Orbit

View from above orbital plane
View from above orbital plane
View from above satellite
View from above satellite

Ground track
Ground track

The orbit data is extracted from the following two-line orbital elements,

1 40054U 14034B   18050.85225368 +.00000443 +00000-0 +69947-4 0  9998
2 40054 098.1932 159.3056 0012068 336.3793 023.6861 14.77371670196282
Epoch (UTC): 19 February 2018 20:27:14
Eccentricity: 0.0012068
inclination: 98.1932°
perigee height: 629 km
apogee height: 646 km
right ascension of ascending node: 159.3056°
argument of perigee: 336.3793°
revolutions per day: 14.77371670
mean anomaly at epoch: 23.6861°
orbit number at epoch: 19628

The dashed part of the orbit path shows where the satellite is in the earth's shadow,  

DLR